Theta_e
300 301 301 300 300 299 299 300 300 300 300 300 301 301 301 301 302 303 303 303 303 303 302 302 302 301 302 304 305 307 309 312 315 316 315 316 317 317 317 317 317 318 317 317 316 316 315 315 315 314 313 313 313 312 311 311 311 311 311 311 311 311
300 301 301 300 299 299 299 299 300 300 300 300 300 300 300 301 302 302 302 303 302 302 302 302 301 301 301 302 304 306 308 312 315 316 315 316 316 317 317 317 317 318 317 317 316 315 315 315 314 314 313 313 312 312 311 311 310 310 310 310 310 311
301 301 301 300 299 298 298 298 299 300 300 300 300 300 300 301 301 301 301 302 302 302 302 301 301 301 301 302 303 305 307 310 314 316 315 316 317 316 317 318 318 318 318 317 316 315 315 314 314 313 313 313 312 312 311 311 310 310 310 310 310 310
301 301 300 299 299 298 298 297 298 299 300 300 300 300 301 300 301 301 301 301 301 301 301 301 301 301 301 302 303 304 306 308 312 315 315 315 317 316 316 317 317 317 317 317 316 315 315 314 313 313 313 312 312 312 311 311 310 310 310 310 310 310
302 302 300 300 299 299 298 297 298 298 299 300 300 300 300 301 301 301 301 301 301 301 301 301 301 301 301 302 303 303 305 307 310 313 314 314 316 316 316 316 316 316 316 316 315 315 315 314 313 313 313 313 313 312 312 311 311 310 310 310 310 310
302 301 300 300 300 300 299 298 297 298 299 299 300 300 301 301 301 301 301 301 301 301 301 301 301 301 301 301 302 302 303 305 307 310 313 314 315 316 316 316 316 316 315 315 315 315 314 314 314 314 313 313 313 312 312 311 311 311 310 310 310 310
301 301 301 302 302 301 301 299 298 298 299 299 300 300 301 301 301 301 301 301 301 301 301 301 301 301 301 301 301 301 302 303 304 306 311 314 314 315 315 316 316 316 316 315 315 315 314 314 314 313 313 313 313 312 312 312 311 311 311 310 310 310
300 300 301 302 302 301 301 300 299 298 298 299 300 300 301 300 301 301 301 300 301 301 301 301 301 301 301 301 301 301 301 301 302 303 306 310 313 314 315 315 316 316 316 316 315 315 315 314 314 314 313 313 313 313 312 312 311 311 311 311 310 310
299 300 301 302 301 301 301 300 300 299 299 299 300 300 301 301 300 300 300 300 300 301 301 301 301 301 301 301 301 301 301 301 301 301 302 305 309 312 314 314 315 315 316 316 316 316 315 315 315 314 314 314 313 313 312 312 312 311 311 311 311 310
299 299 300 301 301 300 300 299 299 299 299 300 300 301 300 301 300 300 300 300 300 301 301 301 301 301 301 300 301 301 301 301 301 301 301 302 304 308 311 313 313 314 315 315 315 316 316 315 315 315 314 314 314 313 313 312 312 312 311 311 311 311
299 300 300 301 301 300 299 299 299 299 299 299 300 300 301 301 301 300 300 300 301 301 301 301 301 301 301 300 300 300 301 301 301 301 301 301 301 303 306 310 312 312 313 314 314 314 314 315 315 315 314 314 314 313 313 313 312 312 312 311 311 311
299 300 300 301 301 300 300 299 298 298 298 298 299 300 301 301 300 300 300 301 301 302 301 301 301 301 300 300 300 300 300 301 301 301 301 301 301 300 302 305 308 311 312 312 312 313 313 313 314 314 314 314 314 313 313 313 312 312 312 312 311 311
299 299 300 300 300 300 300 299 299 298 298 298 298 299 300 300 300 300 300 301 302 302 301 301 301 301 300 300 300 300 300 300 300 301 301 301 300 300 300 301 303 306 309 310 311 311 311 312 312 313 313 313 313 313 313 312 312 312 311 311 311 311
298 298 298 300 300 300 299 299 299 298 298 298 299 299 299 299 299 299 300 300 301 301 301 300 300 300 300 300 299 300 299 299 300 300 301 300 300 300 299 299 300 302 304 306 308 309 309 310 310 311 311 311 311 311 311 311 311 311 310 310 310 310
298 298 298 300 300 300 299 299 298 298 299 301 301 299 298 298 299 298 299 299 299 300 300 300 300 299 299 299 299 299 299 299 299 300 300 300 300 300 299 298 299 299 300 302 303 305 306 307 308 308 308 308 309 309 309 309 309 309 309 309 309 309
300 299 299 299 300 300 300 299 299 299 301 301 301 299 298 298 298 298 298 298 298 299 299 299 299 299 299 298 298 298 298 298 299 299 299 300 299 299 298 297 298 298 298 299 300 300 302 303 304 305 305 305 306 306 306 306 306 307 307 306 307 306
303 302 300 299 300 299 299 299 298 299 299 299 299 298 298 298 298 297 297 297 297 297 298 299 299 299 298 298 298 298 297 297 298 298 298 299 299 298 298 298 297 297 297 297 297 298 298 299 300 301 301 302 303 303 303 304 304 304 304 304 304 303
303 302 301 301 299 298 298 299 298 298 298 298 298 298 298 298 297 297 297 297 297 297 297 298 298 298 298 297 297 297 297 296 296 297 297 297 297 298 298 297 297 297 297 297 297 297 297 297 298 298 298 299 300 300 300 301 301 301 302 301 301 301
302 302 302 301 300 298 298 299 299 298 297 297 297 297 297 297 297 297 297 297 297 297 297 297 297 297 297 297 297 297 297 297 296 296 296 296 295 295 296 296 296 296 297 297 296 296 297 297 296 296 297 297 297 297 297 298 298 299 299 299 299 298
301 301 301 300 300 299 299 299 298 297 296 296 296 296 296 296 296 298 298 298 298 298 297 297 296 297 297 297 297 297 297 297 296 296 295 295 295 294 294 294 295 295 295 296 296 296 296 296 296 295 296 296 295 295 296 296 296 297 297 297 297 297
300 300 300 299 299 299 299 298 297 296 296 296 295 295 295 295 296 298 299 300 300 299 297 297 296 296 297 297 297 297 297 297 297 296 295 295 294 294 294 293 294 294 294 295 295 295 295 295 295 295 295 295 295 294 295 295 296 296 296 296 296 296
299 299 299 299 299 299 299 298 296 295 295 295 295 295 295 296 297 299 300 301 300 299 297 296 296 296 297 297 297 297 297 297 296 296 295 294 294 294 293 293 293 293 293 293 294 294 294 294 294 294 295 295 295 294 294 294 295 295 295 295 296 296
299 299 299 299 299 299 298 297 295 295 295 295 295 295 295 296 298 299 300 300 299 298 297 296 296 296 296 297 297 297 296 296 295 295 294 293 293 293 293 293 293 293 293 292 292 293 293 293 294 294 295 295 295 295 294 294 294 294 295 296 296 296
299 298 298 299 299 298 297 296 295 294 295 295 295 295 295 296 297 298 297 298 298 297 297 296 296 296 296 296 296 296 295 294 294 294 293 292 292 292 292 292 292 292 292 292 292 292 293 293 294 294 295 295 295 295 295 294 294 294 295 296 295 295
297 297 297 298 298 297 295 294 294 294 294 295 295 295 295 296 296 296 296 296 297 297 296 296 295 295 295 295 295 294 293 293 292 292 292 292 292 292 292 292 292 292 292 292 293 293 293 294 294 294 295 294 294 294 294 294 294 295 295 295 295 294
297 296 296 296 296 295 294 294 294 294 294 295 295 295 295 295 295 294 294 295 295 296 295 295 294 294 294 294 294 293 292 291 291 291 291 291 291 291 291 292 292 292 292 292 292 293 293 294 294 294 294 294 293 294 294 294 294 294 295 295 294 293
295 295 295 295 294 294 293 293 294 294 294 294 295 295 294 294 294 294 294 294 294 294 294 294 294 294 294 294 293 293 292 291 290 290 291 291 291 291 292 292 292 292 292 292 293 293 293 293 293 294 293 293 294 294 294 293 293 293 294 294 293 293
293 294 294 294 293 293 293 293 293 294 294 295 294 294 294 294 293 293 293 294 294 294 293 293 292 293 293 293 293 292 292 290 290 291 291 291 291 291 292 292 292 292 292 292 292 292 292 292 292 293 293 293 294 294 293 292 292 292 292 292 292 292
292 293 293 293 293 292 292 292 292 293 294 294 294 293 293 293 293 293 293 293 293 293 292 292 292 291 291 291 291 292 292 291 291 292 291 291 291 292 292 292 292 292 292 292 292 292 292 292 292 292 292 292 293 292 292 292 292 292 291 291 291 291
292 293 293 292 292 291 291 291 291 292 293 293 293 293 293 292 292 292 293 293 292 292 292 292 291 291 291 291 291 291 292 292 291 292 292 292 292 292 292 292 292 292 292 292 292 292 292 292 291 291 291 291 291 292 292 292 292 292 291 291 291 291
292 292 292 292 291 291 290 290 291 291 292 292 293 292 292 292 292 292 292 292 292 291 291 291 291 291 291 291 291 291 292 292 292 292 292 292 292 292 292 292 292 292 292 292 292 292 292 292 291 291 290 291 291 292 292 293 293 292 291 291 291 292
290 290 291 290 290 290 289 289 290 290 291 291 292 292 292 291 291 291 291 291 291 291 291 291 291 291 291 291 291 291 291 291 291 291 291 291 291 291 291 292 292 292 291 291 291 291 292 292 291 291 291 291 292 293 294 293 292 292 291 291 292 291
288 289 289 289 289 289 289 289 289 290 290 291 291 291 291 291 291 291 291 291 291 291 291 291 291 291 291 291 291 291 290 290 290 289 289 290 290 290 290 290 290 290 290 290 291 291 291 291 291 291 291 292 293 293 293 292 292 291 291 291 291 290
288 288 289 289 288 288 288 288 289 289 290 290 291 291 291 291 291 291 290 290 290 290 290 291 291 291 291 290 290 290 290 290 290 289 289 288 288 288 289 289 289 289 289 289 290 290 290 290 290 291 291 292 292 292 292 291 291 291 291 290 290 290
288 288 288 288 288 288 288 288 288 289 290 290 291 291 291 291 291 291 291 290 290 290 290 290 290 290 290 290 290 290 290 290 290 290 290 288 288 287 288 288 288 288 288 288 289 290 290 290 290 290 291 291 291 291 291 291 291 290 290 290 289 289
288 288 288 288 288 288 288 288 289 289 290 290 290 290 290 290 291 291 290 290 290 289 289 290 290 290 290 290 290 290 290 290 290 290 290 290 289 288 288 288 288 288 288 288 288 289 290 290 290 290 290 290 291 290 290 290 290 290 289 289 289 289
288 289 288 288 288 287 287 288 288 289 289 290 289 289 289 290 290 290 289 289 289 289 290 290 290 290 290 290 290 290 290 290 290 290 290 290 290 289 289 289 289 289 288 288 288 289 289 290 290 289 289 289 289 290 289 289 289 289 289 289 289 289
289 289 289 288 288 288 287 287 288 288 289 289 289 289 289 289 289 289 289 288 289 289 290 290 290 290 290 290 289 289 289 289 289 290 290 290 289 289 289 289 289 289 289 288 288 289 289 289 289 289 288 288 288 289 289 289 289 289 289 289 289 289
Wind_Speed
8 9 10 12 17 21 23 24 25 25 25 24 24 23 22 22 21 20 19 18 18 16 15 14 15 15 12 9 7 6 6 5 4 7 8 8 7 11 13 17 21 23 25 28 28 28 30 32 35 38 40 41 40 38 33 31 33 33 35 34 31 35
9 10 11 13 18 22 22 23 24 24 24 23 23 22 21 20 20 20 19 19 17 16 14 13 13 13 11 8 6 5 6 5 3 3 4 3 5 13 17 19 22 24 26 28 29 30 31 33 35 37 39 39 38 39 36 32 33 33 32 32 29 30
9 10 10 13 18 20 20 22 23 24 24 23 23 22 21 20 20 20 20 19 18 16 14 13 12 11 9 6 6 5 6 6 6 4 2 1 4 12 19 22 24 27 29 29 30 32 33 34 36 37 38 38 37 37 35 32 33 33 33 33 31 29
8 9 10 12 15 16 18 21 22 23 25 25 24 23 23 23 22 22 20 19 18 16 15 14 13 12 9 7 6 6 7 9 9 7 6 5 5 10 17 22 24 26 29 31 32 33 35 35 37 38 38 39 37 36 35 34 33 34 33 32 32 31
7 8 9 11 12 13 17 21 23 24 26 26 26 25 24 24 23 22 21 20 18 17 16 15 14 13 11 9 7 6 7 10 11 10 9 8 8 9 13 18 21 23 25 29 31 32 33 34 35 38 39 40 39 38 37 37 36 36 35 34 34 34
5 7 8 9 10 11 14 20 23 25 26 27 27 27 26 25 24 23 21 20 20 18 17 16 15 14 13 11 9 7 7 8 11 12 11 11 10 11 12 15 19 21 22 25 28 29 30 30 32 35 37 38 39 39 38 37 37 37 37 37 37 36
7 8 8 9 11 11 13 19 24 25 26 27 28 28 28 26 25 24 23 22 21 20 19 18 17 16 15 14 12 9 8 8 9 12 13 14 13 13 13 15 17 21 23 25 27 27 28 28 29 31 32 33 34 35 36 36 37 37 37 37 36 36
8 8 8 9 11 12 14 18 22 24 25 27 29 29 28 27 27 26 26 24 23 23 21 20 19 18 17 16 14 12 11 10 9 11 13 15 15 15 15 16 17 19 22 25 27 28 28 28 29 30 30 31 32 32 33 33 34 35 35 35 35 35
9 10 9 9 11 13 16 20 23 24 25 26 28 29 28 28 27 27 27 26 26 25 24 23 21 20 18 17 16 15 13 12 11 11 12 15 17 17 16 17 18 19 20 22 25 27 29 30 31 31 32 32 32 32 31 31 32 32 33 33 34 34
9 9 9 9 10 13 18 22 24 25 25 26 27 28 28 28 27 27 27 27 27 27 26 25 23 21 20 18 17 16 15 14 13 12 12 14 16 18 18 18 18 19 20 21 23 25 27 29 31 32 33 33 32 32 32 31 31 31 31 31 32 32
9 9 9 9 9 12 15 21 25 25 25 26 27 28 29 28 27 27 27 27 27 27 26 25 24 23 21 20 18 18 17 16 15 14 13 14 15 18 19 19 19 19 20 20 21 23 25 27 29 31 32 32 32 32 32 31 31 31 31 31 31 32
8 9 8 7 9 11 13 19 26 28 28 27 27 28 29 28 28 27 28 28 28 27 26 25 25 24 23 22 21 19 19 18 17 16 16 15 15 17 18 19 20 19 20 20 21 22 23 25 27 28 30 31 31 32 32 31 31 32 32 32 32 32
8 8 8 9 12 14 17 23 28 29 28 28 28 29 29 28 27 28 28 29 28 27 26 24 24 24 23 23 22 21 20 19 19 18 18 17 17 17 18 20 21 21 21 21 21 22 23 23 25 25 26 28 29 29 30 30 30 30 30 31 32 32
10 10 11 12 13 16 22 28 28 26 27 30 30 30 29 27 28 28 28 28 28 27 26 25 24 24 24 23 23 23 22 21 20 19 19 19 19 19 20 20 22 23 23 22 22 22 22 22 23 23 24 25 25 25 27 27 27 27 27 28 29 29
10 12 13 13 15 22 30 33 30 29 33 37 35 30 27 28 30 29 28 28 27 27 27 26 25 25 25 25 24 24 23 22 22 21 21 21 20 21 22 22 22 23 24 24 24 24 23 23 22 22 22 22 22 23 23 23 24 24 24 25 25 25
7 10 13 17 22 30 35 33 32 35 38 39 36 29 27 30 31 29 28 27 26 27 28 27 26 26 25 25 25 24 23 22 23 23 22 22 22 22 23 23 23 24 24 24 25 25 25 25 24 23 22 21 21 20 20 20 21 21 21 21 21 21
7 8 12 20 27 31 30 28 30 34 35 34 32 29 29 31 31 29 28 27 26 27 28 29 28 27 26 25 25 24 23 22 22 23 22 23 23 24 25 24 24 24 24 24 24 24 24 24 24 24 23 23 22 21 21 20 20 20 19 19 19 18
12 14 16 21 24 25 25 27 31 33 34 33 31 30 31 32 31 30 28 27 27 28 28 30 30 29 27 26 25 25 24 22 22 22 22 22 22 23 24 24 24 25 24 24 23 23 23 23 23 24 24 24 24 23 23 23 22 22 21 20 19 18
17 19 20 19 19 21 25 28 30 30 32 32 30 30 31 30 30 31 30 29 30 30 30 30 30 30 29 27 27 27 26 24 22 21 22 21 19 21 23 23 24 25 25 24 24 23 23 23 22 22 22 22 23 22 22 22 22 21 20 19 18 18
20 21 22 22 22 24 25 26 28 29 29 30 30 30 29 28 30 34 34 33 33 32 32 31 31 31 31 30 30 30 28 26 23 21 22 21 18 19 21 21 22 23 23 24 24 23 23 23 22 21 20 20 20 20 20 21 20 20 19 18 17 17
24 24 23 21 22 25 24 24 29 27 23 26 30 27 25 29 35 40 40 38 35 33 33 33 32 32 33 32 32 31 29 28 24 21 21 20 17 16 17 18 20 21 22 23 23 23 23 22 21 21 20 20 19 18 20 21 20 19 19 18 17 17
21 17 16 18 23 28 28 26 27 23 22 27 28 24 26 35 42 45 45 41 36 33 33 33 33 33 34 34 33 31 29 28 25 23 21 20 17 15 15 16 17 18 20 22 22 22 23 22 21 20 20 20 19 18 19 20 21 20 19 18 18 18
20 18 20 25 29 30 29 26 23 22 24 26 23 26 35 43 45 47 45 40 34 32 33 33 34 34 34 33 32 30 29 27 25 23 21 20 18 15 15 16 16 15 17 19 21 21 21 21 21 20 20 20 19 19 19 20 20 20 19 19 19 19
17 19 24 31 31 26 25 25 22 22 23 20 22 33 41 42 43 44 40 35 32 32 33 33 34 34 33 31 30 29 28 26 24 22 20 18 16 15 14 14 15 14 15 17 18 19 19 19 19 18 18 19 19 19 19 20 19 19 19 19 19 19
10 14 23 32 30 24 23 24 22 20 19 19 28 38 39 38 40 38 33 31 32 33 33 33 33 33 32 30 29 28 26 23 22 21 19 18 16 14 14 15 16 16 15 15 17 18 19 18 18 18 18 18 19 19 18 19 20 19 20 20 19 18
8 12 21 27 25 21 22 25 23 19 19 24 33 37 35 35 37 33 29 30 31 31 32 32 31 32 32 30 29 28 24 21 20 19 18 18 17 15 15 16 17 17 15 15 15 17 19 19 19 19 19 19 19 19 19 20 21 20 19 19 18 15
10 11 15 21 22 21 23 28 26 19 20 28 34 33 32 33 32 29 29 30 29 29 31 30 30 31 31 30 30 27 23 21 20 18 17 18 18 16 14 15 16 17 16 15 15 16 17 19 20 20 20 19 19 19 19 20 20 19 17 17 17 14
10 10 10 15 21 21 23 28 28 24 25 30 31 30 31 32 30 28 28 28 28 28 28 28 29 29 28 28 27 24 21 20 20 18 17 18 17 16 15 15 16 16 16 15 15 14 15 18 20 21 20 20 19 19 19 18 17 17 16 16 15 14
8 9 8 11 18 22 23 26 28 28 27 26 26 27 29 29 28 27 26 26 26 26 28 29 29 28 26 24 21 18 17 17 17 16 16 17 17 16 15 15 15 16 15 14 14 13 14 16 18 19 20 20 20 19 18 18 17 16 16 15 13 12
8 9 8 10 16 21 23 25 27 28 25 22 23 26 27 27 27 26 25 26 27 27 29 31 30 28 26 22 20 19 18 17 16 15 16 18 18 17 17 16 15 15 15 14 13 13 13 14 16 17 18 19 19 17 17 18 18 16 14 13 11 11
8 9 9 10 14 18 21 23 25 26 24 23 24 26 27 26 26 24 23 24 26 28 29 29 29 29 27 22 20 19 18 18 17 16 15 16 17 16 16 16 14 13 12 11 12 13 13 13 14 16 17 18 19 18 18 19 18 15 13 13 13 13
10 10 9 10 12 15 18 20 21 22 23 24 25 27 27 26 24 23 22 23 24 26 27 27 27 27 26 23 20 17 14 15 17 16 13 13 15 17 17 16 13 10 9 9 10 11 12 12 11 12 14 16 17 17 17 17 15 12 12 13 14 15
10 9 8 9 11 15 17 19 20 21 22 23 26 27 28 27 24 21 20 23 25 27 28 27 26 26 24 22 19 16 13 12 13 15 14 13 14 17 19 18 16 13 11 10 9 10 12 13 12 13 14 15 15 15 14 14 12 11 11 12 13 14
9 8 7 8 11 14 14 15 18 21 22 24 26 27 28 29 26 22 22 24 27 28 28 28 27 25 24 21 17 14 12 11 10 12 14 15 15 15 16 18 18 18 16 15 12 10 10 12 14 15 15 14 15 15 14 13 13 12 11 12 13 14
7 6 6 8 11 12 12 13 17 21 23 24 26 27 28 28 28 27 28 28 28 27 25 25 25 24 22 21 18 14 12 12 10 9 10 12 14 14 15 16 17 18 18 18 17 15 13 13 13 14 15 15 15 15 14 13 13 13 13 13 14 14
4 3 4 6 9 12 13 15 18 21 23 24 26 26 27 26 25 26 28 30 30 30 27 26 26 25 21 20 19 15 13 12 11 9 8 8 9 11 13 15 16 17 18 18 18 18 17 16 15 14 14 15 15 15 15 14 13 13 14 15 15 16
5 1 2 4 7 10 13 15 18 20 22 23 24 24 25 24 22 22 25 28 29 31 30 28 28 27 24 21 20 17 14 13 12 10 10 9 9 9 10 11 13 15 17 18 18 18 18 18 17 15 13 14 15 16 16 15 14 14 15 17 18 17
9 4 2 3 6 9 11 13 14 18 21 24 24 24 24 24 23 23 25 27 28 29 30 30 30 29 27 25 22 20 16 14 12 12 11 11 10 10 10 10 9 11 14 17 19 19 19 20 20 18 16 14 14 16 17 17 15 14 15 17 19 18
Wind_Direction
197 197 195 195 195 196 197 198 200 202 203 205 206 208 209 210 212 215 219 222 223 229 236 241 243 242 242 240 235 240 244 242 269 296 316 315 261 209 191 186 182 182 184 188 191 192 190 187 184 184 184 183 183 186 192 197 196 195 197 200 203 201
199 198 194 193 195 197 197 197 199 200 202 204 206 208 210 210 212 215 219 221 222 225 230 233 237 237 236 234 226 227 237 224 211 271 304 315 226 199 190 188 185 183 184 186 188 188 185 183 182 181 182 182 182 184 189 192 192 192 194 198 202 203
197 198 196 195 196 197 197 197 199 200 202 204 205 207 209 209 211 213 217 221 222 222 223 224 228 230 228 220 208 206 213 204 187 200 242 213 181 186 185 186 187 185 184 183 183 183 182 181 181 179 180 181 182 185 189 190 191 192 192 195 199 201
192 190 191 193 194 196 198 199 199 201 203 205 205 208 208 208 210 211 213 217 219 221 221 220 220 222 221 206 193 193 190 189 186 177 177 178 168 173 179 182 183 184 183 182 181 180 180 181 181 179 180 181 183 187 190 191 193 193 194 195 198 200
191 182 185 191 193 194 196 200 201 202 204 206 207 209 208 209 210 211 213 214 217 220 220 220 219 219 219 208 194 193 184 183 185 176 168 172 169 167 173 177 178 178 179 180 180 180 181 182 181 181 182 184 186 189 191 193 194 194 195 196 199 201
197 184 186 194 197 194 194 200 203 204 206 207 208 208 208 209 211 212 213 215 217 220 220 221 221 219 221 217 206 197 186 181 183 178 171 170 170 168 171 176 177 177 177 177 179 180 182 183 182 184 186 188 189 190 191 194 196 196 198 199 201 201
206 197 192 195 197 196 197 203 205 205 207 208 209 210 210 210 211 213 214 215 217 221 222 222 223 223 223 221 217 208 195 185 181 180 177 173 173 174 174 176 178 180 181 182 183 184 184 185 185 185 188 190 190 191 193 195 197 199 201 203 204 204
209 203 196 195 198 199 201 205 208 209 210 211 212 214 214 213 213 215 216 216 217 220 223 223 224 226 226 223 220 215 205 193 183 181 181 179 177 177 179 180 182 183 184 186 187 189 190 191 191 191 191 192 193 195 197 198 199 201 203 205 207 207
211 206 200 199 201 205 208 210 213 213 214 216 216 216 217 217 216 216 217 218 219 220 222 223 224 227 228 227 221 217 212 205 194 186 183 183 182 181 182 182 184 186 188 189 190 192 194 195 197 197 197 198 198 199 199 200 202 203 205 207 209 210
211 206 203 205 202 207 213 216 218 218 218 220 221 219 219 219 218 218 218 219 219 220 221 223 225 226 228 229 225 219 215 211 204 195 188 186 186 187 187 185 186 187 189 192 194 194 196 196 197 199 200 200 202 202 203 203 204 205 206 209 211 212
214 208 208 206 202 207 214 219 222 222 221 223 224 223 221 219 218 218 218 219 220 223 223 223 224 224 225 226 226 222 218 212 209 205 198 192 189 191 191 189 189 189 189 192 194 195 198 199 200 201 202 202 203 204 205 206 207 208 208 210 212 214
220 218 217 209 206 211 214 218 221 221 221 221 222 223 223 220 218 218 218 220 223 225 224 222 222 222 221 222 224 224 221 215 211 208 205 201 197 193 193 192 193 193 192 193 194 195 198 200 202 204 206 206 206 206 207 208 209 211 211 211 212 214
223 224 223 218 217 217 217 220 222 222 222 221 220 222 223 219 218 219 220 221 223 224 223 221 220 220 219 219 220 222 222 219 214 209 205 204 202 197 194 193 194 196 197 196 195 196 198 200 203 205 206 208 209 209 209 209 210 211 212 214 214 215
213 218 220 221 221 219 220 223 224 224 225 225 223 222 221 219 218 220 222 224 223 222 222 221 220 219 218 217 217 218 219 219 216 212 206 203 201 200 197 195 195 196 199 200 199 198 198 199 201 202 204 206 208 210 210 210 211 212 213 214 216 217
207 211 216 220 220 221 222 222 222 224 226 227 225 220 216 218 219 220 222 224 223 220 221 222 220 219 218 217 216 215 215 216 215 214 211 208 205 202 198 196 196 196 197 200 202 203 202 202 201 200 201 202 204 206 208 209 211 212 214 215 216 218
217 214 217 221 223 225 224 222 222 225 227 228 227 221 216 217 218 218 220 223 223 220 220 221 220 220 219 217 214 212 212 212 213 214 214 211 208 203 201 200 199 198 198 199 200 202 204 205 205 204 204 204 204 205 206 207 209 210 213 215 216 218
226 223 222 224 224 223 221 220 224 228 230 231 229 224 220 218 217 216 218 221 223 221 219 218 219 219 218 216 212 209 209 209 210 212 212 211 209 207 205 205 204 202 201 201 200 199 201 203 203 204 205 206 208 209 209 210 211 211 214 217 219 221
221 227 232 230 223 216 214 218 223 226 229 230 228 225 223 219 217 216 215 217 221 222 219 217 216 216 215 213 209 207 207 207 207 209 210 209 210 209 208 208 208 207 206 205 204 202 202 204 203 202 203 204 207 209 212 214 215 217 219 220 222 225
236 240 244 241 231 222 221 224 225 224 226 227 226 225 224 220 217 215 214 216 219 221 219 216 214 212 212 211 208 207 207 206 205 206 206 205 205 206 207 207 209 210 210 209 208 207 207 209 209 207 204 204 205 206 208 211 213 214 216 218 221 224
245 247 245 243 240 234 230 230 227 222 222 224 223 222 221 219 218 217 215 216 219 220 219 216 213 211 209 208 208 208 207 206 204 203 204 203 203 206 208 208 209 211 212 212 211 210 211 213 213 210 206 206 206 203 202 205 208 211 214 218 222 224
242 244 241 240 241 240 239 234 226 218 215 219 220 218 216 217 219 219 216 217 220 220 218 216 213 211 209 208 209 209 207 206 204 203 204 203 203 208 209 208 210 211 212 213 213 213 213 215 216 213 208 208 210 207 205 206 208 211 215 218 222 227
239 238 234 237 241 245 245 235 220 211 210 215 215 213 215 218 221 221 218 217 218 217 216 215 212 211 210 210 209 208 207 205 204 204 205 204 205 209 210 210 210 211 213 213 213 215 216 216 217 215 209 209 212 210 208 209 210 212 214 217 220 223
236 235 237 241 243 245 241 228 213 209 212 213 211 214 220 222 224 223 220 215 213 213 214 214 212 211 211 210 207 204 203 204 203 202 202 202 203 207 211 212 210 210 214 216 215 217 218 218 218 215 210 210 212 210 209 211 213 213 213 216 219 219
234 235 240 243 242 241 233 218 209 209 211 210 214 221 223 224 224 223 220 214 209 209 212 212 210 209 208 206 203 200 198 199 200 199 197 196 197 201 206 209 209 210 214 218 219 220 220 219 220 217 211 210 212 212 210 213 215 214 215 217 216 215
229 227 237 242 241 238 226 212 206 209 210 213 222 225 225 224 223 221 217 212 207 206 208 209 206 204 203 200 197 194 191 192 194 194 193 191 191 193 197 202 205 208 211 214 217 220 221 221 221 219 213 211 214 216 215 216 218 218 219 220 216 213
233 233 238 242 242 235 222 211 206 208 212 219 226 226 224 222 219 214 212 211 206 203 204 204 201 198 197 195 191 187 184 184 186 186 187 186 185 186 191 198 201 203 205 207 209 212 215 217 217 216 215 215 217 220 220 220 220 220 222 223 220 215
234 241 242 243 239 232 223 215 209 209 216 223 225 223 219 215 211 207 208 208 204 201 201 198 196 195 194 191 187 184 181 178 177 177 178 179 181 183 187 193 197 199 203 206 207 207 207 209 212 215 218 220 220 222 221 218 217 219 222 223 221 219
234 239 241 241 236 229 224 219 214 214 222 224 221 217 212 207 203 203 204 203 201 200 196 191 189 190 190 188 186 184 182 178 175 174 174 178 183 186 187 189 192 197 203 207 209 207 203 204 209 211 214 215 217 219 218 213 212 214 216 217 220 224
226 228 228 235 233 227 223 221 217 219 224 224 217 211 207 202 199 199 200 198 196 194 189 186 185 184 185 185 183 182 183 183 180 177 177 181 185 186 187 189 190 195 200 202 203 202 199 200 203 206 209 212 213 213 211 208 207 208 210 213 218 223
221 222 221 229 229 225 222 219 219 220 221 219 213 206 200 198 198 199 199 197 193 189 188 186 183 180 180 182 181 181 184 187 188 190 191 193 190 186 187 189 191 195 199 198 196 198 200 204 207 207 207 208 206 203 202 205 209 211 213 216 218 223
226 220 221 228 228 225 222 220 219 217 214 212 207 199 193 194 196 197 197 195 191 187 186 185 182 180 179 178 180 183 187 190 193 196 203 208 205 199 195 194 196 198 198 198 200 201 203 211 214 210 205 203 204 205 206 209 214 219 228 235 238 234
236 224 220 223 223 221 220 220 218 214 211 208 202 194 190 189 188 189 190 189 188 186 183 182 182 182 180 178 177 177 184 194 197 198 202 210 213 212 209 205 204 203 201 204 211 213 216 222 222 218 217 218 218 218 216 217 222 233 244 246 241 230
242 230 218 209 211 213 215 216 213 209 206 203 198 193 189 184 180 180 182 184 186 185 182 181 181 181 181 181 178 175 175 185 198 205 207 209 212 217 218 217 216 216 214 214 218 223 228 233 235 238 240 236 229 225 223 223 228 237 240 232 220 210
234 230 218 200 200 205 208 210 208 203 199 198 195 191 188 185 181 178 179 184 186 184 181 180 179 179 179 179 177 176 175 175 187 206 214 216 218 220 223 223 223 224 226 228 229 231 233 234 236 239 240 236 230 228 229 230 231 233 231 219 208 204
220 220 214 194 192 199 202 206 205 200 196 194 193 190 187 187 186 185 183 183 181 178 178 179 177 177 178 179 177 175 177 180 184 191 202 214 222 227 231 233 231 231 232 234 236 237 238 240 240 237 232 228 223 222 226 231 232 229 222 210 203 203
229 205 215 204 198 201 203 206 205 200 195 193 192 190 187 187 188 188 186 182 178 176 176 178 178 178 179 181 181 179 179 185 190 185 179 188 208 223 232 238 239 237 236 236 237 237 238 242 245 243 234 227 222 221 226 230 228 225 221 214 209 207
282 229 205 210 208 208 212 214 209 201 197 195 192 189 187 186 185 185 184 183 181 179 178 180 181 181 181 181 183 184 183 184 185 184 183 187 194 206 220 229 234 236 235 235 235 236 236 238 242 242 238 233 229 226 224 220 216 215 216 216 216 214
297 302 269 222 218 220 227 231 221 205 200 197 192 188 186 184 182 181 181 183 185 184 182 183 183 184 185 185 185 185 184 182 181 184 188 193 198 204 213 220 226 231 232 232 232 233 234 236 238 237 234 232 229 223 215 211 210 211 212 215 218 216